Regional Weather Roundup
Issued by NWS

Home | Current Version | Previous Version | Graphics & Text | Print | Product List | Glossary On
Versions: 1 2 3 4 5 6 7 8 9 10 11 12 13 14 15 16 17 18 19 20 21 22 23 24 25 26 27 28 29 30 31 32 33 34 35 36 37 38 39 40 41 42 43 44 45 46 47 48 49 50
000
ASUS43 KIND 232259
RWRIN

WEATHER ROUNDUP FOR INDIANA
NATIONAL WEATHER SERVICE INDIANAPOLIS IN
700 PM EDT SUN APR 23 2017

NOTE: "FAIR" INDICATES FEW OR NO CLOUDS BELOW 12,000 FEET WITH NO
SIGNIFICANT WEATHER AND/OR OBSTRUCTIONS TO VISIBILITY.

* - STATION DOES NOT REPORT WEATHER SUCH AS PRECIPITATION OR FOG.

+ - STATION NOT QUALITY CONTROLLED BY THE NATIONAL WEATHER SERVICE.
    USE DATA WITH CAUTION...ESPECIALLY DEWPOINT AND RELATIVE
    HUMIDITY OBSERVATIONS.

INZ001>003-010>013-019-020-240000-
NORTHWEST INDIANA

CITY           SKY/WX    TMP DP  RH WIND       PRES   REMARKS
GARY /AIRPORT/ SUNNY     64  12  13 NE6       30.07R
KNOX *+        SUNNY    N/A N/A N/A NE5       30.03S
MONTICELLO +   SUNNY     69  25  19 NE9       30.01F

$$

LMZ046-743>745-240000-
SOUTHERN LAKE MICHIGAN

STATION/POSITION TIME  TEMP    WIND        PRES    WAVE
                       AIR SEA DIR/SP/G            HT
                 (UTC) (F)     (DEG/KT/KT) (MB)    (FT)
BURNS HARBOR     2240   59      60/  5/  5 1018.3S
MICHIGAN CITY    2230   53      30/  5/  5   N/A

$$

INZ004-005-014>016-021>024-240000-
NORTH CENTRAL INDIANA

CITY           SKY/WX    TMP DP  RH WIND       PRES   REMARKS
GOSHEN         SUNNY     67  34  29 E6        30.03S
SOUTH BEND     SUNNY     67  32  27 NW5       30.04S

$$

INZ006>009-017-018-025>027-240000-
NORTHEAST INDIANA

CITY           SKY/WX    TMP DP  RH WIND       PRES   REMARKS
ANGOLA *+      SUNNY     68  59  73 NE6       30.03S
FORT WAYNE     CLOUDY    65  33  30 NE13      30.03S
KENDALLVILLE + SUNNY     66  37  33 SE6       30.04S

$$

INZ028-029-035-036-043>045-051>053-240000-
WEST CENTRAL INDIANA

CITY           SKY/WX    TMP DP  RH WIND       PRES   REMARKS
CRAWFORDSVL +  SUNNY     66  29  24 NE10      30.00R
GREENCASTLE +  SUNNY     68  30  24 NE13G18   29.99S
LAFAYETTE      SUNNY     67  35  30 NE9       30.01R
TERRE HAUTE    SUNNY     69  27  20 NE15G21   29.98R

$$

INZ030>032-037>040-046>048-054>057-064-065-240000-
CENTRAL INDIANA

CITY           SKY/WX    TMP DP  RH WIND       PRES   REMARKS
INDIANAPOLIS   SUNNY     69  30  23 NE16      29.98S
-EAGLE CREEK   SUNNY     70  26  19 NE8G18    29.98S
KOKOMO +       SUNNY     67  34  29 NE10      30.02S
SHELBYVILLE    CLOUDY    72  29  20 NE15      29.97R

$$

INZ033-034-041-042-049-050-058-059-240000-
EAST CENTRAL INDIANA

CITY           SKY/WX    TMP DP  RH WIND       PRES   REMARKS
MUNCIE         SUNNY     67  25  20 NE15      30.01R
RICHMOND +     CLOUDY    64  32  29 NE13G20   29.99R

$$

INZ060-061-067>069-081>083-085>088-240000-
SOUTHWEST INDIANA

CITY           SKY/WX    TMP DP  RH WIND       PRES   REMARKS
EVANSVILLE     SUNNY     71  32  23 NE17G26   29.92R
HUNTINGBURG *+ CLOUDY    68  34  28 NE20G26   29.92R

$$

INZ062-063-066-070>080-084-089>092-240000-
SOUTH CENTRAL AND SOUTHEAST INDIANA

CITY           SKY/WX    TMP DP  RH WIND       PRES   REMARKS
BLOOMINGTON    SUNNY     70  31  23 NE16      29.95S
MADISON *+     CLOUDY    61  34  36 NE8       29.98R
SEYMOUR +      CLOUDY    66  36  32 E9        29.96R

$$





USA.gov is the U.S. government's official web portal to all federal, state and local government web resources and services.